STARLINK-1805, 46705

Orbit data source: Space-Track

STARLINK-1805, 46705 is a payload satellite owned by SpaceX/Seattle (US) in LEO that was launched on Sun, 18 Oct 2020 UTC via an FALCON 9 launch vehicle from the Air Force Eastern Test Range (AFETR). Payload-class satellites include a variety of spacecraft equipped with specific instruments for various scientific and technological missions. These include communications satellites like Starlink; space stations such as the ISS; scientific satellites like the Hubble; Earth observation satellites from companies like Planet Labs, Umbra, and HawkEye 360; GPS; miniature CubeSats for education and research; and military/defense satellites.

Loading next visibility...
Identifier
46705, 2020-073AM
Orbit
LEO
Country
Flag of USUS
Related business
Manufacturer
SpaceX/Seattle
Mission
Operational Commercial Communications
Bus & Motor
STARLINK, Unknown motor
Mass
260 kg wet, ~248 kg dry
Launch date (UTC)
2020-10-18 (5 years ago)
Launch vehicle
FALCON 9
Launch site
Air Force Eastern Test Range (AFETR)
Object type
Payload
Rocket body
Debris
Shape & HBR
Box + 1 Pan, 10.1 m
Radar Cross Section
13.562 m², Large (>1 m²)

Expand to show TLE details & history
Last TLE update: 1 day ago

TLE from 1 day ago
0 STARLINK-1805
1 46705U 20073AM  25286.17614977  .00007403  00000-0  51534-3 0  9994
2 46705  53.0537 198.8336 0001166  71.3121 288.7994 15.06399998274687
Epoch: 2025-10-13T04:13Z
TLE epoch observation values (Epoch: 2025-10-13T04:13:39.340Z)
Latitude
-0.00004°
Longitude
113.43696°
Altitude
547.831 km
Speed
7.589 km/s
True Right ascension
13h 15m 20s
True Declination
0° 00' 00"
Sunlit
Object was in daylight at epoch
Visualization orbit readout
Latitude
Unknown
Longitude
Unknown
Altitude
Unknown
Speed
Unknown
Apparent Right ascension
Unknown
Apparent Declination
Unknown
Sunlit
N/A
Visualization observer readout
Local Sidereal Time
02:15:28
Azimuth
Unknown
Elevation
Unknown
Doppler factor
Unknown
Orbital elements
Apogee altitude
548.29 km
Perigee altitude
546.675 km
Semi-major axis
6,925.619 km
Eccentricity
0.00012
Inclination
53.0537°
RAAN
198.8336°
Arg. of periapsis
71.3121°
True anomaly
288.78675°
Mean anomaly
288.7994°
Eccentric anomaly
288.79308°
Mean motion
3.76578 °/min
Orbital period
95.6 mins
BSTAR
0.00051534
Loading maneuver chart data...
Computing Atmospheric mass density...
Loading historical data...
Loading historical data...
Loading historical data...
Loading historical data...
Loading historical data...
Loading historical data...
Loading historical data...

Documentation

Showing up to 5 results
|